Wroclaw, Poland

10:22 AM CET on February 22, 2017 (GMT +0100)
Strachowice

Weather History for EPWR - March, 2014

Change the Weather History Date:

Sunday, March 16, 2014

  Actual Average Record
Temperature  
Mean Temperature 47 °F -  
Max Temperature 52 °F 51 °F 68 °F (2012)
Min Temperature 42 °F 34 °F 21 °F (2013)
Degree Days  
Heating Degree Days 18    
Moisture  
Dew Point 44 °F    
Average Humidity 84    
Maximum Humidity 96    
Minimum Humidity 64    
Precipitation  
Precipitation 0.12 in 0.04 in - ()
Sea Level Pressure  
Sea Level Pressure 29.64 in    
Wind  
Wind Speed 19 mph ()    
Max Wind Speed 34 mph    
Max Gust Speed 50 mph    
Visibility 6.8 miles    
Events Rain    
Averages and records for this station are not official NWS values.
T = Trace of Precipitation, MM = Missing Value Source: Averaged Metar Reports

Daily Weather History Graph

Daily Weather History Graph

Search for Another Location

Airport or City:

Trip Planner

Search our weather history database for the weather conditions in past years. The results will help you decide how hot, cold, wet, or windy it might be!

Date:

Astronomy

Mar. 16, 2014 Rise Set
Actual Time 6:04 AM CET 5:58 PM CET
Civil Twilight 5:31 AM CET 6:31 PM CET
Nautical Twilight 4:53 AM CET 7:10 PM CET
Astronomical Twilight 4:13 AM CET 7:50 PM CET
Moon 6:02 PM CET (3/16) 5:38 AM CET (3/16)
Length of Visible Light 12h 59m
Length of Day
11h 53m
Full, 100% of the Moon is Illuminated
Mar 16
Full
Mar 16
Full
Mar 24
Last Quarter
Mar 30
New
Apr 7
First Quarter

Hourly Weather History & Observations

Time (CET) Temp. Windchill Dew Point Humidity Pressure Visibility Wind Dir Wind Speed Gust Speed Precip Events Conditions
12:00 AM 44 °F - 37 °F 68% 29.79 in 31 mi West 15.7 mph - -   Overcast
12:00 AM 44.6 °F 36.9 °F 35.6 °F 71% 29.77 in - West 18.4 mph - N/A   Clear
12:30 AM 44.6 °F 36.9 °F 35.6 °F 71% 29.77 in - West 18.4 mph - N/A   Clear
1:00 AM 44 °F - 37 °F 69% 29.77 in 25 mi West 15.7 mph - - Rain Light Rain
1:00 AM 44.6 °F 36.9 °F 35.6 °F 71% 29.74 in 6.2 mi West 18.4 mph - N/A Rain Light Rain
1:30 AM 44.6 °F 37.2 °F 37.4 °F 76% 29.74 in 6.2 mi West 17.3 mph - N/A Rain Light Rain
2:00 AM 43 °F - 39 °F 80% 29.73 in 25 mi West 15.7 mph - - Rain Light Rain
2:00 AM 42.8 °F 34.5 °F 37.4 °F 81% 29.71 in 6.2 mi West 18.4 mph - N/A Rain Light Rain
2:30 AM 42.8 °F 35.1 °F 37.4 °F 81% 29.68 in 6.2 mi West 16.1 mph - N/A Rain Light Rain
3:00 AM 43 °F - 40 °F 83% 29.68 in 25 mi West 15.7 mph - - Rain Light Rain
3:00 AM 42.8 °F 34.8 °F 37.4 °F 81% 29.65 in 6.2 mi West 17.3 mph - N/A Rain Light Rain
3:30 AM 42.8 °F 34.5 °F 39.2 °F 87% 29.62 in 6.2 mi West 18.4 mph - N/A Rain Light Rain
4:00 AM 43 °F - 40 °F 85% 29.62 in 19 mi West 17.9 mph - - Rain Light Rain
4:00 AM 42.8 °F 34.0 °F 39.2 °F 87% 29.59 in 6.2 mi West 20.7 mph 32.2 mph N/A Rain Light Rain
4:30 AM 42.8 °F 34.0 °F 39.2 °F 87% 29.59 in 6.2 mi West 20.7 mph - N/A Rain Light Rain
5:00 AM 43 °F - 41 °F 91% 29.57 in 12 mi West 20.1 mph - - Rain Light Rain
5:00 AM 42.8 °F 33.3 °F 41.0 °F 93% 29.56 in 6.2 mi West 24.2 mph 36.8 mph N/A Rain Light Rain
5:30 AM 44.6 °F 35.7 °F 41.0 °F 87% 29.56 in 6.2 mi West 24.2 mph - N/A Rain Light Rain
6:00 AM 45 °F - 42 °F 86% 29.55 in 12 mi West 22.4 mph - - Rain Light Rain
6:00 AM 44.6 °F 35.1 °F 41.0 °F 87% 29.53 in 6.2 mi West 27.6 mph 41.4 mph N/A Rain Light Rain
6:30 AM 46.4 °F 38.1 °F 41.0 °F 81% 29.53 in 6.2 mi West 24.2 mph 36.8 mph N/A Rain Light Rain
7:00 AM 45 °F - 43 °F 92% 29.55 in 12 mi West 20.1 mph - - Rain Light Rain
7:00 AM 46.4 °F 37.7 °F 42.8 °F 87% 29.53 in 6.2 mi WNW 26.5 mph 40.3 mph N/A Rain Light Rain
7:30 AM 46.4 °F 37.7 °F 42.8 °F 87% 29.53 in 6.2 mi WNW 26.5 mph - N/A Rain Light Rain
8:00 AM 47 °F - 44 °F 87% 29.55 in 12 mi West 22.4 mph - - Rain Light Rain
8:00 AM 48.2 °F - 42.8 °F 82% 29.53 in 6.2 mi WNW 25.3 mph 39.1 mph N/A Rain Light Rain
8:30 AM 48.2 °F - 42.8 °F 82% 29.53 in 6.2 mi WNW 25.3 mph 41.4 mph N/A Rain Light Rain
9:00 AM 47 °F - 45 °F 92% 29.56 in 12 mi West 20.1 mph - - Rain Light Rain
9:00 AM 48.2 °F - 44.6 °F 87% 29.53 in 6.2 mi West 25.3 mph 39.1 mph N/A Rain Light Rain
9:30 AM 48.2 °F - 44.6 °F 87% 29.53 in 6.2 mi West 28.8 mph 41.4 mph N/A Rain Light Rain
10:00 AM 48 °F - 46 °F 91% 29.55 in 6 mi West 17.9 mph - - Rain Light Rain
10:00 AM 48.2 °F - 46.4 °F 93% 29.53 in 5.6 mi West 23.0 mph - N/A Rain Light Rain
10:30 AM 48.2 °F - 46.4 °F 93% 29.53 in 3.7 mi West 21.9 mph - N/A Rain Light Rain
11:00 AM 49 °F - 47 °F 92% 29.55 in 6 mi West 17.9 mph - - Rain Light Rain
11:00 AM 48.2 °F - 46.4 °F 93% 29.53 in 5.6 mi WNW 25.3 mph - N/A Rain Light Rain
11:30 AM 50.0 °F - 46.4 °F 87% 29.53 in 6.2 mi WNW 26.5 mph - N/A Rain Light Rain
12:00 PM 51 °F - 48 °F 84% 29.54 in 31 mi WNW 22.4 mph - - Rain Light Rain
12:00 PM 51.8 °F - 46.4 °F 82% 29.53 in 6.2 mi WNW 29.9 mph 42.6 mph N/A   Mostly Cloudy
12:30 PM 51.8 °F - 46.4 °F 82% 29.53 in 6.2 mi WNW 29.9 mph 49.5 mph N/A Rain Light Rain Showers
1:00 PM 53 °F - 44 °F 64% 29.54 in 31 mi WNW 22.4 mph - - Rain Light Rain Showers
1:00 PM 53.6 °F - 44.6 °F 72% 29.53 in 6.2 mi WNW 34.5 mph 47.2 mph N/A   Mostly Cloudy
1:30 PM 51.8 °F - 44.6 °F 76% 29.56 in 6.2 mi WNW 32.2 mph 49.5 mph N/A   Mostly Cloudy
2:00 PM 51 °F - 46 °F 77% 29.57 in 6 mi WNW 22.4 mph - - Rain Light Rain Showers
2:00 PM 51.8 °F - 44.6 °F 76% 29.56 in 5.6 mi WNW 33.4 mph 47.2 mph N/A Rain Light Rain Showers
2:30 PM 51.8 °F - 44.6 °F 76% 29.56 in 6.2 mi WNW 28.8 mph 40.3 mph N/A Rain Light Rain Showers
3:00 PM 51 °F - 45 °F 74% 29.59 in 9 mi WNW 20.1 mph - - Rain Light Rain Showers
3:00 PM 51.8 °F - 44.6 °F 76% 29.56 in 6.2 mi WNW 26.5 mph 40.3 mph N/A Rain Light Rain Showers
3:30 PM 51.8 °F - 44.6 °F 76% 29.59 in 6.2 mi WNW 25.3 mph 43.7 mph N/A Rain Light Rain Showers
4:00 PM 49 °F - 46 °F 83% 29.62 in 4 mi WNW 20.1 mph - - Rain Light Rain Showers
4:00 PM 50.0 °F - 44.6 °F 82% 29.62 in 3.7 mi WNW 31.1 mph 42.6 mph N/A Rain Light Rain Showers
4:30 PM 50.0 °F - 44.6 °F 82% 29.62 in 6.2 mi WNW 24.2 mph 36.8 mph N/A   Mostly Cloudy
5:00 PM 51 °F - 45 °F 73% 29.65 in 9 mi WNW 17.9 mph - - Rain Light Rain Showers
5:00 PM 50.0 °F - 44.6 °F 82% 29.65 in 6.2 mi NW 28.8 mph - N/A Rain Light Rain Showers
5:30 PM 50.0 °F - 44.6 °F 82% 29.68 in 4.3 mi WNW 21.9 mph 35.7 mph N/A Rain Light Rain Showers
6:00 PM 49 °F - 46 °F 87% 29.70 in 4 mi WNW 13.4 mph - - Rain Heavy Rain Showers
6:00 PM 50.0 °F - 46.4 °F 87% 29.68 in 3.7 mi WNW 17.3 mph - N/A Rain Rain Showers
6:30 PM 50.0 °F - 44.6 °F 82% 29.71 in 6.2 mi WNW 21.9 mph - N/A   Mostly Cloudy
7:00 PM 48 °F - 47 °F 93% 29.73 in 5 mi WNW 15.7 mph - - Rain Heavy Rain Showers
7:00 PM 50.0 °F - 46.4 °F 87% 29.71 in 5.6 mi WNW 23.0 mph - N/A Rain Light Rain Showers
7:30 PM 48.2 °F - 46.4 °F 93% 29.74 in 5.0 mi WNW 15.0 mph - N/A Rain Light Rain Showers
8:00 PM 49 °F - 47 °F 89% 29.76 in 19 mi WNW 13.4 mph - - Rain Light Rain Showers
8:00 PM 50.0 °F - 46.4 °F 87% 29.74 in 6.2 mi WNW 19.6 mph - N/A Rain Light Rain Showers
8:30 PM 48.2 °F - 46.4 °F 93% 29.77 in 6.2 mi WNW 18.4 mph - N/A   Mostly Cloudy
9:00 PM 48 °F - 47 °F 94% 29.79 in 12 mi WNW 13.4 mph - - Rain Light Rain Showers
9:00 PM 48.2 °F - 46.4 °F 93% 29.77 in 6.2 mi WNW 17.3 mph - N/A Rain Light Rain Showers
9:30 PM 48.2 °F - 46.4 °F 93% 29.77 in 6.2 mi West 15.0 mph - N/A   Mostly Cloudy
10:00 PM 49 °F - 47 °F 90% 29.79 in 25 mi WNW 13.4 mph - - Rain Light Rain Showers
10:00 PM 50.0 °F - 46.4 °F 87% 29.77 in 6.2 mi WNW 19.6 mph - N/A   Mostly Cloudy
10:30 PM 50.0 °F - 48.2 °F 94% 29.77 in 3.7 mi WNW 17.3 mph - N/A Rain Rain Showers
11:00 PM 49 °F - 48 °F 96% 29.79 in 4 mi West 13.4 mph - - Rain Heavy Rain Showers
11:00 PM 50.0 °F - 48.2 °F 94% 29.77 in 4.3 mi West 15.0 mph - N/A Rain Rain Showers
11:30 PM 50.0 °F - 46.4 °F 87% 29.77 in 6.2 mi WNW 21.9 mph - N/A   Mostly Cloudy